G4GVZ-1 Weather Reports


Display with metric or nautical units.
time (UTC)temp
F
wind
direction
speed
MPH
gust
MPH
rain 1hr
in
rain 24hr
in
rain mn
in
humidity
%
barometer
mb
20260507143051 60 174 1.0 7.0 0.00 0.00 0.00 52 1014.0
20260507141553 60 174 4.0 14.0 0.00 0.00 0.00 52 1014.1
20260507140053 60 160 3.0 11.0 0.00 0.00 0.00 50 1014.3
20260507134551 60 146 4.0 11.0 0.00 0.00 0.00 48 1014.2
20260507133051 61 156 5.0 11.0 0.00 0.00 0.00 48 1014.3
20260507131553 62 174 6.0 14.0 0.00 0.00 0.00 45 1014.3
20260507130053 61 171 5.0 12.0 0.00 0.00 0.00 46 1014.4
20260507124552 61 158 4.0 12.0 0.00 0.00 0.00 46 1014.5
20260507123052 62 136 4.0 12.0 0.00 0.00 0.00 44 1014.5
20260507121552 62 190 3.0 12.0 0.00 0.00 0.00 47 1014.5
20260507120052 61 154 4.0 12.0 0.00 0.00 0.00 50 1014.6
20260507114551 61 192 3.0 11.0 0.00 0.00 0.00 50 1014.7
20260507113051 60 175 5.0 11.0 0.00 0.00 0.00 49 1015.1
20260507111551 60 162 2.0 9.0 0.00 0.00 0.00 56 1014.9
20260507110053 57 116 3.0 12.0 0.00 0.00 0.00 61 1015.1
20260507104548 56 109 3.0 9.0 0.00 0.00 0.00 64 1015.2
20260507103048 54 117 4.0 9.0 0.00 0.00 0.00 69 1015.0
20260507101548 54 144 4.0 11.0 0.00 0.00 0.00 71 1015.3
20260507100047 53 153 2.0 9.0 0.00 0.00 0.00 72 1015.4
20260507094547 53 116 3.0 11.0 0.00 0.00 0.00 72 1015.6
20260507093047 51 98 2.0 6.0 0.00 0.00 0.00 76 1015.5
20260507091549 50 98 2.0 9.0 0.00 0.00 0.00 79 1015.5
20260507090050 49 98 4.0 8.0 0.00 0.00 0.00 80 1015.4
20260507084549 49 98 4.0 9.0 0.00 0.00 0.00 80 1015.5
20260507083050 48 98 3.0 10.0 0.00 0.00 0.00 81 1015.5
20260507081548 47 97 5.0 9.0 0.00 0.00 0.00 82 1015.3
20260507080048 47 97 6.0 11.0 0.00 0.00 0.00 84 1015.4
20260507074548 47 97 4.0 8.0 0.00 0.00 0.00 85 1015.3
20260507073047 46 96 3.0 7.0 0.00 0.00 0.00 86 1015.1
20260507071547 46 96 3.0 7.0 0.00 0.00 0.00 87 1015.1
20260507070047 45 97 5.0 11.0 0.00 0.00 0.00 88 1015.2
20260507064550 45 97 6.0 12.0 0.00 0.00 0.00 88 1015.2
20260507063049 45 96 5.0 8.0 0.00 0.00 0.00 88 1015.0
20260507061549 44 96 3.0 7.0 0.00 0.00 0.00 89 1015.0
20260507060049 44 96 4.0 9.0 0.00 0.00 0.00 89 1014.9
20260507054549 44 97 7.0 12.0 0.00 0.00 0.00 89 1014.9
20260507053049 43 99 8.0 14.0 0.00 0.00 0.00 89 1014.7
20260507051548 44 104 5.0 12.0 0.00 0.00 0.00 89 1014.8
20260507050050 43 104 7.0 13.0 0.00 0.00 0.00 89 1014.8
20260507044550 43 102 6.0 11.0 0.00 0.00 0.00 89 1014.6
20260507043050 43 100 7.0 12.0 0.00 0.00 0.00 90 1014.5
20260507041549 43 100 4.0 8.0 0.00 0.00 0.00 90 1014.6
20260507040049 43 100 5.0 9.0 0.00 0.00 0.00 90 1014.6
20260507034549 43 100 6.0 10.0 0.00 0.00 0.00 90 1014.4
20260507033049 43 100 4.0 8.0 0.00 0.00 0.00 91 1014.5
20260507031549 42 101 7.0 11.0 0.00 0.00 0.00 91 1014.6
20260507030048 42 102 6.0 10.0 0.00 0.00 0.00 91 1014.7
20260507024551 43 100 7.0 11.0 0.00 0.00 0.00 90 1014.7
20260507023051 43 100 7.0 11.0 0.00 0.00 0.00 89 1014.8
20260507021551 44 100 6.0 9.0 0.00 0.00 0.00 89 1014.9
20260507020051 44 99 6.0 11.0 0.00 0.00 0.00 89 1014.8
20260507014550 44 99 3.0 8.0 0.00 0.00 0.00 88 1014.7
20260507013050 44 99 4.0 10.0 0.00 0.00 0.00 88 1014.8
20260507011550 44 100 5.0 9.0 0.00 0.00 0.00 87 1014.6
20260507010049 44 100 6.0 10.0 0.00 0.00 0.00 87 1014.5
20260507004549 44 100 5.0 9.0 0.00 0.00 0.00 87 1014.5
20260507003051 44 98 6.0 10.0 0.00 0.00 0.00 87 1014.6
20260507001551 44 99 6.0 11.0 0.00 0.00 0.00 87 1014.6
20260507000051 44 98 6.0 10.0 0.00 0.00 0.00 86 1014.6
20260506234550 44 97 6.0 12.0 0.00 0.00 0.00 85 1014.8
20260506233050 45 103 8.0 13.0 0.00 0.00 0.00 85 1014.8
20260506231552 45 111 6.0 12.0 0.00 0.00 0.00 84 1014.9
20260506230052 45 117 6.0 10.0 0.00 0.00 0.00 84 1014.8
20260506224547 46 101 5.0 10.0 0.00 0.00 0.00 83 1014.7
20260506223047 46 101 6.0 10.0 0.00 0.00 0.00 83 1014.7
20260506221547 46 100 6.0 12.0 0.00 0.00 0.00 82 1014.6
20260506220047 47 101 5.0 10.0 0.00 0.00 0.00 81 1014.5
20260506214546 47 99 5.0 11.0 0.00 0.00 0.00 80 1014.5
20260506213046 48 97 4.0 11.0 0.00 0.00 0.00 78 1014.4
20260506211548 48 97 4.0 9.0 0.00 0.00 0.00 77 1014.3
20260506210048 48 98 4.0 7.0 0.00 0.00 0.00 76 1014.3
20260506204548 49 98 2.0 7.0 0.00 0.00 0.00 74 1014.4
20260506203047 50 98 0.0 7.0 0.00 0.00 0.00 73 1014.2
20260506201547 50 98 2.0 6.0 0.00 0.00 0.00 71 1013.8
20260506200047 51 98 1.0 6.0 0.00 0.00 0.00 69 1013.7
20260506194547 51 98 2.0 9.0 0.00 0.00 0.00 68 1013.7
20260506193046 52 98 7.0 11.0 0.00 0.00 0.00 65 1013.4
20260506191546 53 98 6.0 12.0 0.00 0.00 0.00 60 1013.4
20260506190046 54 98 5.0 12.0 0.00 0.00 0.00 58 1013.3
20260506184549 54 75 6.0 11.0 0.00 0.00 0.00 57 1013.3
20260506183049 55 63 1.0 7.0 0.00 0.00 0.00 53 1013.3
20260506181548 56 64 1.0 5.0 0.00 0.00 0.00 52 1013.1
20260506180048 56 65 2.0 7.0 0.00 0.00 0.00 51 1013.1
20260506174548 56 67 2.0 9.0 0.00 0.00 0.00 50 1013.1
20260506173048 56 78 3.0 9.0 0.00 0.00 0.00 50 1013.0
20260506171547 57 74 2.0 8.0 0.00 0.00 0.00 48 1012.9
20260506170047 58 65 2.0 8.0 0.00 0.00 0.00 48 1012.8
20260506164547 58 65 2.0 8.0 0.00 0.00 0.00 47 1012.8
20260506163049 57 65 0.0 5.0 0.00 0.00 0.00 49 1012.8
20260506161549 57 62 3.0 10.0 0.00 0.00 0.00 48 1012.8
20260506160048 58 56 3.0 11.0 0.00 0.00 0.00 48 1012.9
20260506154548 60 8 1.0 9.0 0.00 0.00 0.00 46 1012.7
20260506153048 59 359 2.0 11.0 0.00 0.00 0.00 45 1012.9
20260506151548 59 81 0.0 5.0 0.00 0.00 0.00 47 1013.0
20260506150050 57 65 4.0 13.0 0.00 0.00 0.00 48 1013.1
20260506144548 59 72 2.0 14.0 0.00 0.00 0.00 47 1013.2